World > North America > United States > Illinois

Hourly Salisbury, IL Regional Weather

Feedback E-mail the Weather

Quick WX

Salisbury, IL Weather Maps

°F °C°F °C
Salisbury Weather Map
UTC Time: 7/2/2022, 10:35
Your Time:

Salisbury, IL Regional Weather

Expires:202207021100;;544568
ASUS43 KLOT 021008
RWRIL 

ILLINOIS REGIONAL WEATHER ROUNDUP
NATIONAL WEATHER SERVICE CHICAGO/ROMEOVILLE IL
500 AM CDT SAT JUL 02 2022

NOTE: "FAIR" INDICATES FEW OR NO CLOUDS BELOW 12,000 FEET WITH NO
SIGNIFICANT WEATHER AND/OR OBSTRUCTIONS TO VISIBILITY.

* THESE STATIONS ARE NOT UNDER NWS QUALITY CONTROL. THEY ALSO MAY NOT
  REPORT WEATHER SUCH AS PRECIPITATION OR FOG.


ILZ028>032-037-038-041>044-048-051>054-059>061-021100-
CENTRAL ILLINOIS
  
CITY           SKY/WX    TMP DP  RH WIND       PRES   REMARKS
PONTIAC        FOG       56  56  97 CALM      30.04S VSB 1/2          
BLOOMINGTON    CLEAR     65  63  93 N7        30.05R                  
DECATUR        MOCLDY    67  67 100 N6        30.02S                  
PEORIA         MOCLDY    64  62  93 CALM      30.03R                  
LINCOLN*       CLOUDY    64  64 100 CALM      30.02S FOG              
SPRINGFIELD    CLEAR     67  64  90 CALM      30.02R                  
TAYLORVILLE    PTCLDY    69  66  89 NE5       30.02R                  
$$


SKY/WX - Weather  TMP - Temperature  DP - Dew Point  RH - Humidity
WIND - Wind Direction/Speed PRES - Barometric Pressure VSB - Visibility
WCI - Wind Chill Index E13G22 Wind - East Wind 13 mph/Gusts of 22 mph

Trending Headlines

Salisbury Radar Loop



Salisbury Quick Facts


National Two Day Weather Forecast


E-mail the Salisbury Weather Forecast

Voice your opinion or tell us about page issues...